Location: Robert Ferguson Observatory
(38.4385°N, 122.5078°W)
Time: 01:57:23
(UTC-07:00)

Daily predictions for brighter satellites

Satellite Brightness Start Highest point End
(mag) Time Altitude Azimuth Time Altitude Azimuth Time Altitude Azimuth
CZ-4C R/B 3.7 03:59:51 46° NE 03:59:58 46° NE 04:07:33 10° ESE
USA 229 DEB 4.3 04:17:56 53° ENE 04:17:56 53° ENE 04:23:14 10° NE
USA 229 4.3 04:18:00 53° ENE 04:18:00 53° ENE 04:23:18 10° NE
Milstar 3 4.0 04:19:02 29° SE 04:19:02 29° SE 04:23:00 10° ESE
USA 267 3.3 04:26:50 10° SE 04:32:48 72° E 04:32:48 72° E
ADEOS II 3.2 04:44:25 10° NNE 04:47:25 35° NNE 04:47:25 35° NNE
Cosmos 1943 Rocket 3.7 04:52:50 24° N 04:52:50 24° N 04:55:11 10° NNE
Kosmos-1675 4.4 04:54:36 79° N 04:54:36 79° N 05:07:28 10° NNE
CZ-4B R/B 4.2 04:53:58 10° NNE 04:59:11 44° E 05:04:29 10° S
SJ 16-02 3.5 05:00:30 10° SSE 05:04:06 25° E 05:07:42 10° NE
Cosmos 2341 Rocket 4.2 05:14:27 10° N 05:20:51 72° E 05:27:13 10° SSE
Cosmos 2181 Rocket 4.3 05:15:03 10° S 05:21:14 65° E 05:27:20 10° NNE
Cosmos 2369 Rocket 4.3 05:38:02 12° NNW 05:38:02 12° NNW 05:38:54 10° NNW
OAO 2 Rocket 3.6 05:36:13 46° SW 05:37:00 52° S 05:41:50 10° ESE
Nadezhda 1 Rocket 4.4 05:38:07 38° WNW 05:38:12 39° WNW 05:44:07 10° N
Cosmos 2227 Rocket 4.3 05:34:20 10° N 05:39:02 26° ENE 05:43:42 10° ESE
APEX 3.5 05:39:24 55° SW 05:39:24 55° SW 05:43:46 10° S
Tiangong 2 1.7 05:42:42 50° SSE 05:42:42 50° SSE 05:45:16 10° ESE
Okean O Rocket 1.7 05:39:38 10° N 05:43:54 51° WNW 05:44:10 50° W
Meteor 1-31 Rocket 2.7 05:40:07 10° NNE 05:43:56 81° ESE 05:47:44 10° S
Cosmos 158 Rocket 4.2 05:39:20 10° NNW 05:44:45 74° ENE 05:50:07 10° SSE
CZ-4C R/B 3.3 05:45:10 27° WNW 05:48:38 42° WSW 05:56:03 10° S
Cosmos-2242 2.8 05:44:26 10° N 05:48:44 80° W 05:53:03 10° S
Cosmos 1707 4.5 05:51:06 20° NNW 05:51:06 20° NNW 05:52:34 10° N
CZ-3 R/B 4.0 05:36:11 26° W 05:49:52 41° SW 05:58:34 10° SSE
Cosmos 1758 Rocket 4.4 05:51:32 32° NW 05:51:32 32° NW 05:54:42 10° N
GPS 2-04 Rocket1 3.8 05:52:48 27° SSW 05:52:55 27° SSW 05:56:08 10° SE
Shenzhou-11 Module 3.9 05:55:44 20° S 05:55:44 20° S 05:57:21 10° SSE
Okean-O 3.5 05:55:10 10° NNE 05:59:31 52° E 06:03:49 10° S
USA 81 3.9 05:57:02 10° S 06:02:17 76° W 06:07:35 10° N
CZ-2C R/B 3.7 05:57:54 10° S 06:02:39 79° WSW 06:07:24 10° NNW
NOSS 3-1 (C) 3.7 06:02:23 25° WSW 06:05:23 44° NW 06:11:31 10° NNE
Cosmos 2219 3.1 06:01:07 10° NNW 06:06:46 71° WSW 06:12:20 10° SSE
COSMO-SKYMED 1 3.5 06:04:58 10° SSE 06:09:10 51° ENE 06:13:24 10° N
Cosmos 1356 3.3 06:06:25 10° SSW 06:09:53 77° W 06:13:23 10° N
Cosmos 2366 rocket 4.0 06:05:16 10° N 06:11:27 84° E 06:17:37 10° S
NOSS 3-1 (A) 3.5 06:06:57 16° SW 06:11:27 56° NW 06:17:46 10° NNE
EO 1 Del DPAF 3.4 06:08:22 10° SSE 06:12:10 74° ENE 06:16:00 10° N
USA 267 4.2 06:11:24 10° S 06:16:42 26° SW 06:20:10 17° W
Cosmos 2297 Rocket 3.5 06:11:36 10° N 06:16:58 42° ENE 06:22:17 10° SE
Meteor 2-5 Rocket 4.2 06:13:56 10° SW 06:19:27 40° WNW 06:24:56 10° N
Cosmos 2221 4.2 06:16:38 10° N 06:20:45 38° ENE 06:24:50 10° SSE
Cosmos 1269 Rocket 4.0 06:17:39 10° NNW 06:22:56 71° WSW 06:28:11 10° S
In-Cosmos 22 4.2 06:18:17 10° SSW 06:23:50 70° W 06:29:33 10° N
Landsat 4 4.2 06:20:36 10° SSW 06:24:07 37° W 06:27:39 10° NNW
SL-8 Rocket 4.1 06:18:22 10° NNW 06:24:33 56° W 06:30:41 10° SSW
Cosmos 1842 Rocket 3.4 06:21:01 10° N 06:25:23 79° W 06:29:42 10° S
ADEOS II 3.9 06:26:55 10° NW 06:28:22 12° WNW 06:28:22 12° WNW
Cosmos 372 Rocket 4.4 06:24:13 10° SW 06:29:04 39° WNW 06:33:59 10° N
Meteor 2-1 Rocket 4.3 06:23:21 10° N 06:29:18 84° W 06:35:06 10° S
Cosmos 2084 Rocket 3.6 06:28:11 10° SSW 06:32:31 73° ESE 06:36:38 10° NE
ERBS 2.3 06:31:17 12° NW 06:34:26 66° SW 06:37:51 10° SSE
Meteor 1-28 Rocket 3.7 06:32:18 10° SSW 06:35:51 38° W 06:39:27 10° NNW
CZ-4B R/B 4.2 06:35:10 10° NNW 06:39:27 24° WNW 06:43:47 10° WSW
IDEFIX/ARIANE 42P 2.8 06:34:26 10° NNE 06:39:42 77° ESE 06:44:53 10° S
NOSS 2-3 (C) 4.1 06:36:57 10° SSW 06:41:31 73° ESE 06:46:45 10° NE
PAYLOAD A 3.9 06:37:21 10° NNE 06:42:06 90° E 06:46:57 10° SSW
SJ 16-02 2.3 06:38:54 10° WSW 06:42:34 26° WNW 06:46:16 10° N
Cosmos 1125 Rocket 4.5 06:40:15 10° WSW 06:44:38 26° WNW 06:49:05 10° N
Cosmos 2369 3.7 06:39:10 10° SSW 06:44:49 86° WNW 06:50:30 10° NNE
Meteor 2-8 Rocket 4.5 06:43:10 10° SSW 06:49:14 62° W 06:55:18 10° N
Okean 3 Rocket 3.8 06:45:18 10° S 06:49:46 79° E 06:54:14 10° N
NOAA 6 4.3 06:46:25 10° N 06:51:23 47° WNW 06:56:17 10° SW
Cosmos 2218 Rocket 4.4 06:45:44 10° NNW 06:51:30 41° W 06:57:19 10° SSW
GP-B 4.1 06:47:54 10° SSE 06:52:12 52° E 06:56:32 10° N
Cosmos 494 Rocket 4.0 06:50:29 10° NNW 06:55:41 89° WSW 07:00:54 10° SSE
SKYMED 2 3.9 06:53:06 10° S 06:57:14 43° W 07:01:22 10° NNW
Milstar 3 4.4 06:53:57 10° WSW 06:59:31 26° SSW 07:06:45 10° SE
Cosmos 1076 Rocket 3.6 06:57:12 10° S 07:01:33 89° NW 07:05:54 10° N
